When you browse on this site, cookies collect data to enhance your experience and personalize the content and advertising you see.
Visit our Privacy Policy to learn more. By continuing to use the site, you agree to this use of cookies and data.
  • In Österreich
  • Länderverzeichnis
  • Für 7 Tage
  • Wassertemperatur
  • Wetterkarte
  • News
  • Widgets
  • user-avatar
    Anmelden

    Stündliche Wetter San Marcos

    Heute, 18 Januar, Samstag

    Zeit Temperatur Niederschläge Wind Luftdruck Luftfeuchtigkeit
    00:00 +15°C° 0 mm 1 m/S 597 mmHg 81%
    01:00 +14°C° 0 mm 1 m/S 597 mmHg 84%
    02:00 +13°C° 0 mm 1 m/S 596 mmHg 86%
    03:00 +13°C° 0 mm 1 m/S 596 mmHg 88%
    04:00 +13°C° 0 mm 1 m/S 596 mmHg 89%
    05:00 +12°C° 0 mm 1 m/S 596 mmHg 91%
    06:00 +13°C° 0 mm 1 m/S 596 mmHg 88%
    07:00 +13°C° 0 mm 1 m/S 597 mmHg 85%
    08:00 +14°C° 0 mm 1 m/S 597 mmHg 82%
    09:00 +16°C° 0 mm 1 m/S 598 mmHg 74%
    10:00 +17°C° 0 mm 2 m/S 598 mmHg 65%
    11:00 +19°C° 0 mm 3 m/S 599 mmHg 56%
    12:00 +20°C° 0.1 mm 3 m/S 599 mmHg 52%
    13:00 +21°C° 0.1 mm 4 m/S 598 mmHg 48%
    14:00 +21°C° 0.1 mm 4 m/S 598 mmHg 45%
    15:00 +20°C° 0.1 mm 4 m/S 597 mmHg 51%
    16:00 +19°C° 0.1 mm 4 m/S 597 mmHg 57%
    17:00 +18°C° 0.1 mm 4 m/S 597 mmHg 63%
    18:00 +17°C° 0.2 mm 3 m/S 597 mmHg 68%
    19:00 +16°C° 0.2 mm 2 m/S 597 mmHg 74%
    20:00 +15°C° 0.2 mm 1 m/S 597 mmHg 80%
    21:00 +15°C° 0.1 mm 1 m/S 597 mmHg 81%
    22:00 +14°C° 0.1 mm 1 m/S 597 mmHg 83%
    23:00 +14°C° 0.1 mm 1 m/S 597 mmHg 84%

    Morgen, 19 Januar, Sonntag

    Zeit Temperatur Niederschläge Wind Luftdruck Luftfeuchtigkeit
    00:00 +14°C° 0 mm 1 m/S 597 mmHg 87%
    01:00 +13°C° 0 mm 1 m/S 596 mmHg 90%
    02:00 +13°C° 0 mm 1 m/S 596 mmHg 93%
    03:00 +13°C° 0 mm 1 m/S 596 mmHg 93%
    04:00 +13°C° 0 mm 1 m/S 596 mmHg 93%
    05:00 +13°C° 0 mm 1 m/S 597 mmHg 93%
    06:00 +13°C° 0 mm 1 m/S 597 mmHg 90%
    07:00 +14°C° 0 mm 1 m/S 598 mmHg 87%
    08:00 +14°C° 0 mm 1 m/S 599 mmHg 84%
    09:00 +15°C° 0.2 mm 2 m/S 599 mmHg 81%
    10:00 +14°C° 0.2 mm 3 m/S 599 mmHg 77%
    11:00 +16°C° 0.2 mm 3 m/S 599 mmHg 74%
    12:00 +15°C° 0.2 mm 4 m/S 598 mmHg 73%
    13:00 +15°C° 0.2 mm 4 m/S 598 mmHg 72%
    14:00 +15°C° 0.2 mm 4 m/S 598 mmHg 71%
    15:00 +14°C° 0.1 mm 4 m/S 598 mmHg 74%
    16:00 +14°C° 0.1 mm 4 m/S 597 mmHg 76%
    17:00 +13°C° 0.1 mm 4 m/S 597 mmHg 79%
    18:00 +13°C° 1.7 mm 3 m/S 598 mmHg 83%
    19:00 +13°C° 1.7 mm 2 m/S 598 mmHg 87%
    20:00 +13°C° 1.7 mm 1 m/S 599 mmHg 91%
    21:00 +13°C° 0.5 mm 1 m/S 599 mmHg 91%
    22:00 +13°C° 0.5 mm 1 m/S 599 mmHg 91%
    23:00 +13°C° 0.5 mm 1 m/S 599 mmHg 91%

    übermorgen, 20 Januar, Montag

    Zeit Temperatur Niederschläge Wind Luftdruck Luftfeuchtigkeit
    00:00 +12°C° 0 mm 1 m/S 598 mmHg 91%
    01:00 +12°C° 0 mm 1 m/S 598 mmHg 92%
    02:00 +12°C° 0 mm 1 m/S 598 mmHg 93%
    03:00 +12°C° 0 mm 1 m/S 598 mmHg 93%
    04:00 +11°C° 0 mm 1 m/S 598 mmHg 94%
    05:00 +11°C° 0 mm 1 m/S 598 mmHg 95%
    06:00 +12°C° 0 mm 1 m/S 598 mmHg 91%
    07:00 +12°C° 0 mm 1 m/S 599 mmHg 88%
    08:00 +13°C° 0 mm 1 m/S 600 mmHg 85%
    09:00 +13°C° 0 mm 1 m/S 600 mmHg 79%
    10:00 +14°C° 0 mm 2 m/S 600 mmHg 74%
    11:00 +15°C° 0 mm 2 m/S 600 mmHg 69%
    12:00 +16°C° 0 mm 2 m/S 600 mmHg 65%
    13:00 +17°C° 0 mm 3 m/S 599 mmHg 62%
    14:00 +18°C° 0 mm 3 m/S 599 mmHg 59%
    15:00 +17°C° 0 mm 3 m/S 599 mmHg 61%
    16:00 +15°C° 0 mm 4 m/S 598 mmHg 63%
    17:00 +15°C° 0 mm 4 m/S 598 mmHg 66%
    18:00 +14°C° 0 mm 3 m/S 598 mmHg 73%
    19:00 +12°C° 0 mm 3 m/S 598 mmHg 80%
    20:00 +12°C° 0 mm 2 m/S 597 mmHg 87%
    21:00 +12°C° 0 mm 2 m/S 598 mmHg 87%
    22:00 +12°C° 0 mm 2 m/S 598 mmHg 87%
    23:00 +12°C° 0 mm 2 m/S 598 mmHg 87%

    21 Januar, Dienstag

    Zeit Temperatur Niederschläge Wind Luftdruck Luftfeuchtigkeit
    00:00 +12°C° 0 mm 1 m/S 598 mmHg 87%
    01:00 +12°C° 0 mm 1 m/S 597 mmHg 87%
    02:00 +12°C° 0 mm 1 m/S 597 mmHg 87%
    03:00 +11°C° 0 mm 1 m/S 597 mmHg 88%
    04:00 +11°C° 0 mm 1 m/S 596 mmHg 90%
    05:00 +10°C° 0 mm 1 m/S 596 mmHg 92%
    06:00 +11°C° 0 mm 1 m/S 596 mmHg 86%
    07:00 +12°C° 0 mm 1 m/S 597 mmHg 80%
    08:00 +13°C° 0 mm 1 m/S 598 mmHg 74%
    09:00 +15°C° 0 mm 1 m/S 598 mmHg 66%
    10:00 +18°C° 0 mm 1 m/S 599 mmHg 58%
    11:00 +20°C° 0 mm 1 m/S 599 mmHg 50%
    12:00 +21°C° 0 mm 1 m/S 599 mmHg 47%
    13:00 +21°C° 0 mm 1 m/S 598 mmHg 45%
    14:00 +22°C° 0 mm 1 m/S 597 mmHg 42%
    15:00 +21°C° 0 mm 1 m/S 597 mmHg 48%
    16:00 +19°C° 0 mm 2 m/S 597 mmHg 53%
    17:00 +18°C° 0 mm 2 m/S 596 mmHg 59%
    18:00 +17°C° 0.1 mm 2 m/S 596 mmHg 64%
    19:00 +16°C° 0.1 mm 1 m/S 596 mmHg 68%
    20:00 +15°C° 0.1 mm 1 m/S 596 mmHg 73%
    21:00 +15°C° 0 mm 1 m/S 596 mmHg 75%
    22:00 +14°C° 0 mm 1 m/S 596 mmHg 77%
    23:00 +13°C° 0 mm 1 m/S 595 mmHg 78%

    22 Januar, Mittwoch

    Zeit Temperatur Niederschläge Wind Luftdruck Luftfeuchtigkeit
    00:00 +13°C° 0 mm 1 m/S 595 mmHg 78%
    01:00 +13°C° 0 mm 1 m/S 594 mmHg 78%
    02:00 +12°C° 0 mm 1 m/S 594 mmHg 78%
    03:00 +12°C° 0 mm 1 m/S 594 mmHg 79%
    04:00 +12°C° 0 mm 1 m/S 593 mmHg 80%
    05:00 +12°C° 0 mm 1 m/S 593 mmHg 81%
    06:00 +13°C° 0 mm 2 m/S 594 mmHg 76%
    07:00 +14°C° 0 mm 2 m/S 595 mmHg 70%
    08:00 +15°C° 0 mm 2 m/S 596 mmHg 65%
    09:00 +17°C° 0 mm 2 m/S 596 mmHg 55%
    10:00 +19°C° 0 mm 3 m/S 597 mmHg 45%
    11:00 +21°C° 0 mm 4 m/S 597 mmHg 35%
    12:00 +21°C° 0 mm 5 m/S 597 mmHg 32%
    13:00 +22°C° 0 mm 6 m/S 596 mmHg 29%
    14:00 +23°C° 0 mm 6 m/S 596 mmHg 25%
    15:00 +21°C° 0 mm 6 m/S 595 mmHg 29%
    16:00 +20°C° 0 mm 6 m/S 595 mmHg 33%
    17:00 +19°C° 0 mm 6 m/S 594 mmHg 37%
    18:00 +17°C° 0 mm 5 m/S 594 mmHg 42%
    19:00 +17°C° 0 mm 4 m/S 594 mmHg 46%
    20:00 +16°C° 0 mm 3 m/S 595 mmHg 50%
    21:00 +16°C° 0 mm 2 m/S 595 mmHg 52%
    22:00 +15°C° 0 mm 2 m/S 595 mmHg 54%
    23:00 +15°C° 0 mm 1 m/S 595 mmHg 56%

    23 Januar, Donnerstag

    Zeit Temperatur Niederschläge Wind Luftdruck Luftfeuchtigkeit
    00:00 +15°C° 0 mm 1 m/S 594 mmHg 57%
    01:00 +14°C° 0 mm 1 m/S 594 mmHg 58%
    02:00 +14°C° 0 mm 1 m/S 593 mmHg 59%
    03:00 +14°C° 0 mm 1 m/S 593 mmHg 59%
    04:00 +14°C° 0 mm 1 m/S 593 mmHg 58%
    05:00 +13°C° 0 mm 1 m/S 593 mmHg 57%
    06:00 +14°C° 0 mm 1 m/S 594 mmHg 53%
    07:00 +14°C° 0 mm 2 m/S 594 mmHg 50%
    08:00 +15°C° 0 mm 2 m/S 595 mmHg 46%
    09:00 +17°C° 0 mm 3 m/S 595 mmHg 41%
    10:00 +19°C° 0 mm 3 m/S 596 mmHg 35%
    11:00 +21°C° 0 mm 4 m/S 596 mmHg 30%
    12:00 +21°C° 0 mm 5 m/S 596 mmHg 29%
    13:00 +22°C° 0 mm 5 m/S 595 mmHg 27%
    14:00 +23°C° 0 mm 6 m/S 595 mmHg 26%
    15:00 +21°C° 0 mm 5 m/S 594 mmHg 30%
    16:00 +20°C° 0 mm 5 m/S 594 mmHg 33%
    17:00 +19°C° 0 mm 5 m/S 594 mmHg 37%
    18:00 +18°C° 0 mm 4 m/S 594 mmHg 43%
    19:00 +16°C° 0 mm 3 m/S 594 mmHg 48%
    20:00 +15°C° 0 mm 2 m/S 594 mmHg 54%
    21:00 +14°C° 0 mm 2 m/S 593 mmHg 57%
    22:00 +13°C° 0 mm 2 m/S 593 mmHg 60%
    23:00 +13°C° 0 mm 1 m/S 593 mmHg 63%
    Mehr zeigen